Crane Lake, MN

7:29 AM CDT on May 27, 2017 (GMT -0500)
Crane Lake

Weather History for KCDD - November, 2013

Change the Weather History Date:

Friday, November 8, 2013

  Actual Average Record
Temperature  
Mean Temperature 26 °F -  
Max Temperature 37 °F 35 °F 62 °F (2010)
Min Temperature 14 °F 22 °F -7 °F (2003)
Degree Days  
Heating Degree Days 40    
Moisture  
Dew Point 22 °F    
Average Humidity 83    
Maximum Humidity 100    
Minimum Humidity 60    
Precipitation  
Precipitation 0.18 in - - ()
Sea Level Pressure  
Sea Level Pressure 29.94 in    
Wind  
Wind Speed 1 mph (SSE)    
Max Wind Speed 10 mph    
Max Gust Speed -    
Visibility 7 miles    
Events Snow    
Averages and records for this station are not official NWS values.
T = Trace of Precipitation, MM = Missing Value Source: NWS Daily Summary

Daily Weather History Graph

Daily Weather History Graph

Search for Another Location

Airport or City:

Trip Planner

Search our weather history database for the weather conditions in past years. The results will help you decide how hot, cold, wet, or windy it might be!

Date:

Astronomy

Nov. 08, 2013 Rise Set
Actual Time 7:06 AM CST 4:39 PM CST
Civil Twilight 6:33 AM CST 5:13 PM CST
Nautical Twilight 5:55 AM CST 5:50 PM CST
Astronomical Twilight 5:19 AM CST 6:27 PM CST
Moon 12:03 PM CST (11/8) 10:02 PM CST (11/8)
Length of Visible Light 10h 39m
Length of Day
9h 33m
Waxing Crescent, 33% of the Moon is Illuminated
Nov 8
Waxing Crescent
Nov 9
First Quarter
Nov 17
Full
Nov 25
Last Quarter
Dec 2
New

Hourly Weather History & Observations

Time (CST) Temp. Windchill Dew Point Humidity Pressure Visibility Wind Dir Wind Speed Gust Speed Precip Events Conditions
12:10 AM 19.4 °F - 14.0 °F 80% 30.12 in 10.0 mi Calm Calm - N/A   Clear
12:30 AM 17.6 °F - 14.0 °F 86% 30.12 in 10.0 mi Calm Calm - N/A   Clear
12:51 AM 17.6 °F - 12.2 °F 79% 30.12 in 10.0 mi Calm Calm - N/A   Clear
1:10 AM 17.6 °F - 12.2 °F 79% 30.12 in 10.0 mi Calm Calm - N/A   Clear
1:30 AM 17.6 °F 12.3 °F 14.0 °F 86% 30.13 in 10.0 mi SSW 3.5 mph - N/A   Clear
1:50 AM 19.4 °F - 15.8 °F 86% 30.12 in 10.0 mi Calm Calm - N/A   Clear
2:10 AM 17.6 °F - 14.0 °F 86% 30.12 in 10.0 mi Calm Calm - N/A   Clear
2:31 AM 15.8 °F - 14.0 °F 93% 30.13 in 10.0 mi Calm Calm - N/A   Clear
2:50 AM 15.8 °F - 12.2 °F 86% 30.12 in 10.0 mi Calm Calm - N/A   Clear
3:10 AM 15.8 °F - 12.2 °F 86% 30.12 in 10.0 mi Calm Calm - N/A   Clear
3:30 AM 15.8 °F - 12.2 °F 86% 30.12 in 10.0 mi Calm Calm - N/A   Clear
3:50 AM 15.8 °F - 12.2 °F 86% 30.11 in 10.0 mi Calm Calm - N/A   Clear
4:11 AM 15.8 °F - 12.2 °F 86% 30.12 in 10.0 mi Calm Calm - N/A   Clear
4:30 AM 14.0 °F - 12.2 °F 93% 30.12 in 10.0 mi Calm Calm - N/A   Clear
4:50 AM 14.0 °F - 12.2 °F 93% 30.11 in 10.0 mi Calm Calm - N/A   Clear
5:10 AM 14.0 °F - 12.2 °F 93% 30.11 in 10.0 mi Calm Calm - N/A   Clear
5:30 AM 14.0 °F 8.2 °F 12.2 °F 93% 30.10 in 10.0 mi SSE 3.5 mph - N/A   Clear
5:51 AM 15.8 °F 10.2 °F 12.2 °F 86% 30.09 in 10.0 mi SE 3.5 mph - N/A   Scattered Clouds
6:10 AM 15.8 °F - 12.2 °F 86% 30.10 in 10.0 mi Calm Calm - N/A   Clear
6:30 AM 15.8 °F - 14.0 °F 93% 30.09 in 10.0 mi Calm Calm - N/A   Scattered Clouds
6:51 AM 15.8 °F - 14.0 °F 93% 30.09 in 10.0 mi Calm Calm - N/A   Clear
7:10 AM 15.8 °F - 12.2 °F 86% 30.09 in 10.0 mi Calm Calm - N/A   Clear
7:30 AM 15.8 °F - 14.0 °F 93% 30.08 in 10.0 mi Calm Calm - N/A   Clear
7:50 AM 17.6 °F - 15.8 °F 93% 30.08 in 10.0 mi Calm Calm - N/A   Clear
8:10 AM 17.6 °F - 17.6 °F 100% 30.08 in 10.0 mi Calm Calm - N/A   Clear
8:30 AM 19.4 °F - 17.6 °F 93% 30.08 in 10.0 mi Calm Calm - N/A   Clear
8:50 AM 23.0 °F 18.4 °F 21.2 °F 93% 30.07 in 10.0 mi SSE 3.5 mph - N/A   Clear
9:10 AM 24.8 °F 19.1 °F 21.2 °F 86% 30.06 in 10.0 mi SSE 4.6 mph - N/A   Clear
9:30 AM 26.6 °F 22.6 °F 23.0 °F 86% 30.06 in 10.0 mi SSE 3.5 mph - N/A   Clear
9:50 AM 28.4 °F 22.2 °F 21.2 °F 74% 30.05 in 10.0 mi SSE 5.8 mph - N/A   Clear
10:10 AM 30.2 °F 26.7 °F 24.8 °F 80% 30.04 in 10.0 mi SSE 3.5 mph - N/A   Clear
10:30 AM 32.0 °F 28.7 °F 23.0 °F 69% 30.03 in 10.0 mi SSE 3.5 mph - N/A   Clear
10:50 AM 33.8 °F - 23.0 °F 65% 30.02 in 10.0 mi Calm Calm - N/A   Clear
11:10 AM 35.6 °F 31.7 °F 24.8 °F 65% 30.01 in 10.0 mi SSE 4.6 mph - N/A   Scattered Clouds
11:30 AM 37.4 °F 32.1 °F 24.8 °F 60% 30.00 in 10.0 mi South 6.9 mph - N/A   Mostly Cloudy
11:50 AM 37.4 °F 34.9 °F 26.6 °F 65% 29.98 in 10.0 mi SSE 3.5 mph - N/A   Scattered Clouds
12:10 PM 37.4 °F 34.9 °F 24.8 °F 60% 29.97 in 10.0 mi SE 3.5 mph - N/A   Scattered Clouds
12:30 PM 35.6 °F 31.7 °F 26.6 °F 70% 29.96 in 10.0 mi SSE 4.6 mph - N/A   Mostly Cloudy
12:51 PM 37.4 °F 34.9 °F 26.6 °F 65% 29.95 in 10.0 mi ESE 3.5 mph - N/A   Scattered Clouds
1:10 PM 35.6 °F 32.8 °F 26.6 °F 70% 29.94 in 10.0 mi SE 3.5 mph - N/A   Scattered Clouds
1:30 PM 35.6 °F - 26.6 °F 70% 29.94 in 10.0 mi Calm Calm - N/A   Scattered Clouds
1:50 PM 35.6 °F - 26.6 °F 70% 29.93 in 10.0 mi Calm Calm - N/A   Scattered Clouds
2:10 PM 35.6 °F 32.8 °F 26.6 °F 70% 29.91 in 10.0 mi SE 3.5 mph - N/A   Scattered Clouds
2:30 PM 37.4 °F - 28.4 °F 70% 29.90 in 10.0 mi Calm Calm - N/A   Overcast
2:51 PM 37.4 °F - 28.4 °F 70% 29.88 in 10.0 mi Calm Calm - N/A   Overcast
3:10 PM 37.4 °F - 26.6 °F 65% 29.87 in 10.0 mi Calm Calm - N/A   Overcast
3:30 PM 35.6 °F - 26.6 °F 70% 29.86 in 10.0 mi Calm Calm - N/A   Overcast
3:50 PM 35.6 °F - 26.6 °F 70% 29.84 in 10.0 mi Calm Calm - N/A   Mostly Cloudy
4:10 PM 35.6 °F - 26.6 °F 70% 29.83 in 10.0 mi Calm Calm - N/A   Overcast
4:30 PM 35.6 °F 32.8 °F 24.8 °F 65% 29.83 in 10.0 mi SE 3.5 mph - N/A   Overcast
4:50 PM 35.6 °F 28.0 °F 26.6 °F 70% 29.84 in 5.0 mi SSE 10.4 mph - N/A Snow Light Snow
5:11 PM 33.8 °F - 26.6 °F 75% 29.84 in 0.8 mi Calm Calm - N/A Snow Light Snow
5:31 PM 30.2 °F - 28.4 °F 93% 29.83 in 0.8 mi Calm Calm - 0.01 in Snow Light Snow
5:50 PM 30.2 °F - 28.4 °F 93% 29.83 in 0.5 mi Calm Calm - 0.02 in Snow Snow
6:10 PM 30.2 °F - 26.6 °F 86% 29.80 in 0.5 mi Calm Calm - 0.01 in Snow Light Snow
6:30 PM 30.2 °F - 28.4 °F 93% 29.82 in 0.8 mi Calm Calm - 0.02 in Snow Light Snow
6:50 PM 30.2 °F - 28.4 °F 93% 29.81 in 0.2 mi Calm Calm - 0.03 in Snow Snow
7:10 PM 30.2 °F - 28.4 °F 93% 29.79 in 0.2 mi Calm Calm - 0.01 in Snow Snow
7:30 PM 30.2 °F - 28.4 °F 93% 29.77 in 0.8 mi Calm Calm - 0.02 in Snow Light Snow
7:50 PM 30.2 °F - 28.4 °F 93% 29.75 in 1.5 mi Calm Calm - 0.04 in Snow Light Snow
8:11 PM 30.2 °F - 28.4 °F 93% 29.74 in 1.0 mi Calm Calm - 0.01 in Snow Light Snow
8:30 PM 30.2 °F - 28.4 °F 93% 29.73 in 1.0 mi Calm Calm - 0.02 in Snow Light Snow
8:50 PM 30.2 °F 26.7 °F 28.4 °F 93% 29.72 in 1.0 mi SE 3.5 mph - 0.03 in Snow Light Snow
9:11 PM 30.2 °F - 28.4 °F 93% 29.71 in 1.0 mi Calm Calm - N/A Snow Light Snow
9:30 PM 30.2 °F - 28.4 °F 93% 29.70 in 1.8 mi Calm Calm - 0.01 in Snow Light Snow
9:50 PM 30.2 °F - 28.4 °F 93% 29.69 in 0.8 mi Calm Calm - 0.02 in Snow Light Snow
10:10 PM 30.2 °F - 28.4 °F 93% 29.68 in 1.0 mi Calm Calm - 0.01 in Snow Light Snow
10:31 PM 30.2 °F - 28.4 °F 93% 29.67 in 1.8 mi Calm Calm - 0.01 in Snow Light Snow
10:50 PM 30.2 °F - 28.4 °F 93% 29.66 in 1.5 mi Calm Calm - 0.02 in Snow Light Snow
11:10 PM 30.2 °F - 28.4 °F 93% 29.65 in 1.2 mi Calm Calm - N/A Snow Light Snow
11:31 PM 30.2 °F - 28.4 °F 93% 29.64 in 0.8 mi Calm Calm - 0.01 in Snow Light Snow
11:50 PM 30.2 °F - 28.4 °F 93% 29.64 in 1.0 mi Calm Calm - 0.02 in Snow Light Snow